Showing default

ION SCV-016, 62628

Orbit data source: Space-Track

ION SCV-016, 62628 is a payload satellite owned by D-ORBIT (IT) in SSO that was launched on Tue, 14 Jan 2025 UTC via an FALCON 9 launch vehicle from the Air Force Western Test Range (AFWTR). Payload-class satellites include a variety of spacecraft equipped with specific instruments for various scientific and technological missions. These include communications satellites like Starlink; space stations such as the ISS; scientific satellites like the Hubble; Earth observation satellites from companies like Planet Labs, Umbra, and HawkEye 360; GPS; miniature CubeSats for education and research; and military/defense satellites.

Loading next visibility...
Identifier
62628, 2025-009V
Orbit
SSO
Country
Flag of ITIT
Related business
Manufacturer
D-ORBIT
Mission
Operational Commercial Technology
Bus & Motor
ION-SC, PM200
Mass
220 kg wet, 150 kg dry
Launch date (UTC)
2025-01-14 (1 year ago)
Launch vehicle
FALCON 9
Launch site
Air Force Western Test Range (AFWTR)
Object type
Payload
Rocket body
Debris
Shape & HBR
Box, 1.4 m
Radar Cross Section
0.240 m², Medium (>0.1 m² and < 1m²)

Expand to show TLE details & history
Last TLE update: 19 hours ago

TLE from 19 hours ago
0 ION SCV-016
1 62628U 25009V   26034.60914073  .00026173  00000-0  57648-3 0  9997
2 62628  97.4524  87.7558 0612818 165.7425 196.1974 14.44989318 56215
Epoch: 2026-02-03T14:37Z
TLE epoch observation values (Epoch: 2026-02-03T14:37:09.759Z)
Latitude
0.00003°
Longitude
94.67751°
Altitude
1,166.084 km
Speed
7.052 km/s
True Right ascension
05h 51m 01s
True Declination
0° 00' 00"
Sunlit
Object was in full shadow at epoch
Visualization orbit readout
Latitude
Unknown
Longitude
Unknown
Altitude
Unknown
Speed
Unknown
Apparent Right ascension
Unknown
Apparent Declination
Unknown
Sunlit
N/A
Visualization observer readout
Local Sidereal Time
11:11:40
Azimuth
Unknown
Elevation
Unknown
Doppler factor
Unknown
Orbital elements
Apogee altitude
1,175.271 km
Perigee altitude
302.955 km
Semi-major axis
7,117.25 km
Eccentricity
0.06128
Inclination
97.4524°
RAAN
87.7558°
Arg. of periapsis
165.7425°
True anomaly
194.37338°
Mean anomaly
196.1974°
Eccentric anomaly
195.27252°
Mean motion
3.61472 °/min
Orbital period
99.59 mins
BSTAR
0.00057648
Loading maneuver chart data...
Computing Atmospheric mass density...
Loading historical data...
Loading historical data...
Loading historical data...
Loading historical data...
Loading historical data...
Loading historical data...
Loading historical data...

Documentation

Showing up to 5 results
|